Regional Weather Roundup
Issued by NWS

Home | Current Version | Previous Version | Text Only | Print | Product List | Glossary On
Versions: 1 2 3 4 5 6 7 8 9 10 11 12 13 14 15 16 17 18 19 20 21 22 23 24 25 26 27 28 29 30 31 32 33 34 35 36 37 38 39 40 41 42 43 44 45 46 47 48 49 50
000
ASCA42 TJSJ 131511
RWRPR
PUERTO RICO/U.S. VIRGIN ISLANDS HOURLY WEATHER ROUNDUP
NATIONAL WEATHER SERVICE SAN JUAN PR
1100 AM AST SUN JUL 13 2014

PRZ001-004-131600-
PUERTO RICO

CITY           SKY/WX    TMP DP  RH WIND       PRES   REMARKS
SAN JUAN LMM   MOSUNNY   88  72  58 NE14G22   30.08S HX  94
AGUADILLA      MOSUNNY   84  72  65 NE13      30.10R
CEIBA          MOSUNNY   84  72  65 E9        30.11S
$$

PRZ006-007-131600-
U.S. VIRGIN ISLANDS

CITY           SKY/WX    TMP DP  RH WIND       PRES   REMARKS
CHARLOTTE AMA  CLOUDY    82  77  83 E12       30.09R HX  91
CHRISTIANSTED  MOSUNNY   90  72  55 E14       30.09  HX  96
$$

HOURLY WEATHER ROUNDUP FOR THE NEWS MEDIA

CITY           SKY/WX    TMP DP  RH WIND       PRES   REMARKS
MIAMI          MOSUNNY   85  74  69 SE7       30.10R HX  92
ORLANDO        MOSUNNY   85  75  72 SE6       30.13S HX  93
NEW YORK       CLOUDY    74  68  81 S14G22    30.08S
NEWARK         PTSUNNY   76  71  85 S6        30.04F
CHICAGO        PTSUNNY   73  63  70 W6        29.94F
HARTFORD       SUNNY     79  62  56 S16       30.08F
BOSTON         MOSUNNY   81  60  48 S15       30.03F
DALLAS         SUNNY     89  69  51 W9        30.10S HX  93
PHILADELPHIA   MOSUNNY   82  70  66 S13       30.04F


USA.gov is the U.S. government's official web portal to all federal, state and local government web resources and services.